Regional Weather Roundup
Issued by NWS

Home | Current Version | Previous Version | Text Only | Print | Product List | Glossary On
Versions: 1 2 3 4 5 6 7 8 9 10 11 12 13 14 15 16 17 18 19 20 21 22 23 24 25 26 27 28 29 30 31 32 33 34 35 36 37 38 39 40 41 42 43 44 45 46 47 48 49 50
262
ASUS43 KMKX 220021
RWRWI

WISCONSIN REGIONAL WEATHER ROUNDUP
NATIONAL WEATHER SERVICE MILWAUKEE/SULLIVAN WI
600 PM CST THU NOV 21 2019

NOTE: "FAIR" INDICATES FEW OR NO CLOUDS BELOW 12,000 FEET WITH NO
SIGNIFICANT WEATHER AND/OR OBSTRUCTIONS TO VISIBILITY.

WIZ001-002-006>008-014>016-023>028-220100-
NORTHWEST WISCONSIN

CITY           SKY/WX    TMP DP  RH WIND       PRES   REMARKS
SUPERIOR ARPT  CLOUDY    22  16  77 NW8       30.10S WCI  12
6HR MIN TEMP:  22; 6HR MAX TEMP:  32;

ASHLAND        CLOUDY    24  20  84 NW13G31   30.02R WCI  12
6HR MIN TEMP:  24; 6HR MAX TEMP:  31; 6HR PCP: TRACE;

HAYWARD        CLOUDY    23  18  81 NW8       30.03R WCI  14
6HR MIN TEMP:  23; 6HR MAX TEMP:  32; 6HR PCP: TRACE;

SIREN          CLOUDY    20  16  81 N13G23    30.10R WCI   8
6HR MIN TEMP:  21; 6HR MAX TEMP:  32; 6HR PCP:  0.02;

CUMBERLAND     CLOUDY    23  18  80 N18G25    30.04R WCI   9
RICE LAKE      CLOUDY    25   8  48 NW10G23   30.06R WCI  15
6HR MIN TEMP:  26; 6HR MAX TEMP:  33;

CHETEK         CLOUDY    27  23  84 NW8       30.02R WCI  18
6HR MIN TEMP:  27; 6HR MAX TEMP:  34;

LADYSMITH      CLOUDY    28  24  86 NW20G25   30.00R WCI  14
6HR MIN TEMP:  29; 6HR MAX TEMP:  34;

EAU CLAIRE     CLOUDY    31  21  66 NW15G28   30.00R WCI  20
6HR MIN TEMP:  31; 6HR MAX TEMP:  38; 6HR PCP: TRACE;

MENOMONIE      CLOUDY    26  20  77 NW12G21   30.04R WCI  16
6HR MIN TEMP:  27; 6HR MAX TEMP:  33;

NEW RICHMOND   MOCLDY    25  19  77 NW16G22   30.07R WCI  12
6HR MIN TEMP:  25; 6HR MAX TEMP:  34;

OSCEOLA        CLOUDY    25  19  77 NW14G20   30.12R WCI  13
6HR MIN TEMP:  25; 6HR MAX TEMP:  34;

$$

WIZ003>005-009-010-017-018-220100-
NORTH CENTRAL WISCONSIN

CITY           SKY/WX    TMP DP  RH WIND       PRES   REMARKS
MANITOWISH WTR CLOUDY    24  22  93 NW12G24   29.91R WCI  13
6HR MIN TEMP:  24; 6HR MAX TEMP:  32;

ARBOR VITAE    FLURRIES  28  25  90 NW16G23   29.89R WCI  16
6HR MIN TEMP:  29; 6HR MAX TEMP:  34;

WOODRUFF       FLURRIES  28  25  90 NW16G23   29.89R WCI  16
6HR MIN TEMP:  29; 6HR MAX TEMP:  34;

RHINELANDER    LGT SNOW  28  24  85 NW8G20    29.86R FOG     WCI  20
6HR MIN TEMP:  28; 6HR MAX TEMP:  34; 6HR PCP:  0.01;

EAGLE RIVER    CLOUDY    27  24  91 NW18G25   29.87R WCI  13
6HR MIN TEMP:  28; 6HR MAX TEMP:  33;

LAND O LAKES   CLOUDY    26  24  91 NW18G24   29.88R WCI  13
6HR MIN TEMP:  27; 6HR MAX TEMP:  32;

PHILLIPS       CLOUDY    26  24  92 NW9       29.93R WCI  16
6HR MIN TEMP:  27; 6HR MAX TEMP:  32;

TOMAHAWK       CLOUDY    28  25  86 NW8G16    29.90R WCI  20
6HR MIN TEMP:  28; 6HR MAX TEMP:  34;

MEDFORD        CLOUDY    28  25  88 NW14      29.91R WCI  17
6HR MIN TEMP:  29; 6HR MAX TEMP:  34;

MERRILL        FLURRIES  30  26  85 NW8G22    29.90R WCI  23
6HR MIN TEMP:  31; 6HR MAX TEMP:  36;

$$

WIZ029-030-035-036-043>047-220100-
CENTRAL WISCONSIN

CITY           SKY/WX    TMP DP  RH WIND       PRES   REMARKS
WAUSAU         CLOUDY    32  24  72 NW9G22    29.88R WCI  24
6HR MIN TEMP:  32; 6HR MAX TEMP:  37; 6HR PCP: TRACE;

MOSINEE        CLOUDY    32  27  80 NW13G18   29.89R WCI  22
MARSHFIELD     CLOUDY    32  26  78 NW16G26   29.90R WCI  21
6HR MIN TEMP:  32; 6HR MAX TEMP:  38;

STEVENS POINT  CLOUDY    32  25  77 NW13G24   29.90R WCI  22
6HR MIN TEMP:  32; 6HR MAX TEMP:  39;

WAUPACA        CLOUDY    38  28  69 NW14G22   29.88R WCI  29
6HR MIN TEMP:  38; 6HR MAX TEMP:  47;

WAUTOMA        LGT RAIN  36  29  75 NW14      29.90R WCI  27
6HR MIN TEMP:  36; 6HR MAX TEMP:  46; 6HR PCP: TRACE;

WISC RAPIDS    CLOUDY    34  26  72 NW14G25   29.92R WCI  25
6HR MIN TEMP:  34; 6HR MAX TEMP:  43; 6HR PCP: TRACE;

CAMP DOUGLAS   CLOUDY    33  30  87 NW15      29.94R WCI  23
6HR MIN TEMP:  33; 6HR MAX TEMP:  42; 6HR PCP: TRACE;

$$

WIZ011>013-019>022-031-037>040-048>050-220100-
NORTHEAST WISCONSIN

CITY           SKY/WX    TMP DP  RH WIND       PRES   REMARKS
ANTIGO         LGT SNOW  29  26  86 NW13G22   29.85R WCI  19
6HR MIN TEMP:  30; 6HR MAX TEMP:  36;

SHAWANO        CLOUDY    37  29  74 NW12G17   29.85R WCI  29
6HR MIN TEMP:  37; 6HR MAX TEMP:  45; 6HR PCP:  0.01;

OCONTO         CLOUDY    36  29  76 NW8       29.82R WCI  29
6HR MIN TEMP:  36; 6HR MAX TEMP:  42;

STURGEON BAY   CLOUDY    37  30  75 NW15G25   29.79R WCI  28
6HR MIN TEMP:  37; 6HR MAX TEMP:  44; 6HR PCP:  0.04;

GREEN BAY      CLOUDY    38  28  67 NW17G26   29.82R WCI  28
6HR MIN TEMP:  38; 6HR MAX TEMP:  45; 6HR PCP:  0.01;

MANITOWOC      CLOUDY    39  33  79 NW16G22   29.82R WCI  30
6HR MIN TEMP:  39; 6HR MAX TEMP:  48; 6HR PCP:  0.03;

APPLETON       CLOUDY    37  27  65 NW16      29.83R WCI  28
CLINTONVILLE   CLOUDY    35  26  68 NW16G30   29.87R WCI  25
6HR MIN TEMP:  36; 6HR MAX TEMP:  44;

OSHKOSH        CLOUDY    38  31  76 NW15G22   29.85R WCI  29
6HR MIN TEMP:  38; 6HR MAX TEMP:  50; 6HR PCP:  0.02;

$$

WIZ032>034-041-042-053>061-220100-
SOUTHWEST WISCONSIN

CITY           SKY/WX    TMP DP  RH WIND       PRES   REMARKS
LA CROSSE      CLOUDY    37  29  72 NW13      29.99R WCI  29
6HR MIN TEMP:  37; 6HR MAX TEMP:  41; 6HR PCP: TRACE;

SPARTA         CLOUDY    33  28  82 NW10      29.98S WCI  25
6HR MIN TEMP:  33; 6HR MAX TEMP:  39;

VIROQUA        CLOUDY    33  31  91 NW15G21   29.95S WCI  23
6HR MIN TEMP:  33; 6HR MAX TEMP:  40;

BOSCOBEL       CLOUDY    38  29  70 NW9G21    29.98R WCI  31
6HR MIN TEMP:  38; 6HR MAX TEMP:  48; 6HR PCP: TRACE;

PRAIRIE DU CHI CLOUDY    37  28  71 NW10G17   30.00R WCI  30
6HR MIN TEMP:  37; 6HR MAX TEMP:  44;

PLATTEVILLE    CLOUDY    37  34  89 NW18G26   29.97R WCI  27
6HR MIN TEMP:  37; 6HR MAX TEMP:  47;

$$

WIZ056-057-062-063-064-067-068-220100-
SOUTH CENTRAL WISCONSIN

CITY           SKY/WX    TMP DP  RH WIND       PRES   REMARKS
REEDSBURG      CLOUDY    34  31  89 NW12G18   29.93S WCI  25
6HR MIN TEMP:  35; 6HR MAX TEMP:  46;

BARABOO/DELLS  CLOUDY    33  28  82 NW15G23   29.92R WCI  23
6HR MIN TEMP:  34; 6HR MAX TEMP:  45;

LONE ROCK      LGT RAIN  37  32  82 W14G22    29.95R WCI  28
6HR MIN TEMP:  37; 6HR MAX TEMP:  48; 6HR PCP: TRACE;

MINERAL POINT  CLOUDY    37  32  81 NW15G23   29.94R WCI  28
MADISON        CLOUDY    38  31  76 NW10G25   29.89R WCI  31
6HR MIN TEMP:  38; 6HR MAX TEMP:  52; 6HR PCP: TRACE;

MIDDLETON      CLOUDY    39  32  76 NW12G25   29.92R WCI  31
6HR MIN TEMP:  39; 6HR MAX TEMP:  52;

WATERTOWN      CLOUDY    37  33  84 NW15G25   29.88R WCI  28
6HR MIN TEMP:  38; 6HR MAX TEMP:  51; 6HR PCP:  0.01;

MONROE         CLOUDY    38  32  79 NW9G18    29.92R WCI  31
6HR MIN TEMP:  38; 6HR MAX TEMP:  50;

JANESVILLE     CLOUDY    41  37  87 NW14G23   29.90R
$$

WIZ051-052-058>065-066-070>072-220100-
SOUTHEAST WISCONSIN

CITY           SKY/WX    TMP DP  RH WIND       PRES   REMARKS
MILWAUKEE      CLOUDY    43  34  70 NW17G32   29.83R
6HR MIN TEMP:  43; 6HR MAX TEMP:  55; 6HR PCP: TRACE;

WAUKESHA       CLOUDY    37  34  87 NW18G30   29.85R WCI  27
MILWAUKEE/TIMM NOT AVBL
RACINE         CLOUDY    43  35  73 NW14G33   29.85R
6HR MIN TEMP:  43; 6HR MAX TEMP:  55; 6HR PCP: TRACE;

KENOSHA        CLOUDY    45  38  76 NW16G29   29.84R
6HR MIN TEMP:  45; 6HR MAX TEMP:  56; 6HR PCP:  0.01;

FOND DU LAC    CLOUDY    39  31  72 NW15G25   29.85R WCI  31
6HR MIN TEMP:  39; 6HR MAX TEMP:  51; 6HR PCP:  0.01;

SHEBOYGAN      CLOUDY    40  32  73 NW12G23   29.82R WCI  33
6HR MIN TEMP:  40; 6HR MAX TEMP:  52; 6HR PCP:  0.01;

WEST BEND      CLOUDY    37  34  87 NW13G23   29.84R WCI  29
JUNEAU         CLOUDY    37  32  83 NW12G17   29.88R WCI  29
6HR MIN TEMP:  37; 6HR MAX TEMP:  50;

$$

LSZ147-162-220100-
LAKE SUPERIOR

STATION/POSITION TIME  TEMP    WIND        PRES    WAVE
                       AIR SEA DIR/SP/G            HT/PER
                 (UTC) (F)     (DEG/KT/KT) (MB)    (FT/S)
DEVILS ISLAND    0000   25     320/ 25/ 29 1017.2R
SAXON HARBOR     0000   28     320/ 21     1015.9
$$

LMZ867-665-643>646-220100-
LAKE MICHIGAN

STATION/POSITION TIME  TEMP    WIND        PRES    WAVE
                       AIR SEA DIR/SP/G            HT/PER




USA.gov is the U.S. government's official web portal to all federal, state and local government web resources and services.